Flag for Malaysia Weather past 2 weeks in Kuching, Malaysia

Now
84 °F

Broken clouds.


Feels Like: 91 °F
Forecast: 75 / 85 °F
Wind: 7 mph from North

Location: Kuching Airport

Current Time: Jan 28, 2015 at 5:55:56 PM

Latest Report: Jan 28, 2015 at 5:30 PM


Visibility: N/A

Pressure: 29.77 "Hg

Humidity: 70%

Dew point: 73 °F

Location of KuchingLocation

Historic Weather in Kuching — Graph

°F

Kuching temperature yesterday

Maximum temperature yesterday: 86 °F (at 2:00 PM)
Minimum temperature yesterday: 73 °F (at 12:00 AM)
Average temperature yesterday: 79 °F

Past Weeks' High & Low Weather Summary

 TemperatureHumidityPressure
High88 °F (Jan 28, 12:00 PM)100% (Jan 14, 4:30 AM)30.07 "Hg (Jan 14, 4:30 AM)
Low72 °F (Jan 21, 10:00 PM)55% (Jan 27, 4:30 PM)29.77 "Hg (Jan 13, 4:00 PM)
Average77 °F88%29.90 "Hg
* Reported Jan 13 4:00 PM — Jan 28 4:30 PM, Kuching, Weather by CustomWeather, © 2014

Note: Actual official high and low records may vary slightly from our data, if they occured in-between our weather recording intervals... More about our weather records

Advertising

Kuching weather history for previous 24 hours

 ConditionsComfort  
Time TempWeatherWind HumidityBarometerVisibility
4:30 PM
Jan 28
86 °FBroken clouds.7 mph66%29.77 "HgN/A
4:00 PM86 °FPartly sunny.7 mph66%29.77 "HgN/A
3:30 PM86 °FBroken clouds.7 mph66%29.77 "HgN/A
3:00 PM86 °FBroken clouds.8 mph66%29.77 "HgN/A
2:30 PM84 °FBroken clouds.8 mph66%29.80 "HgN/A
2:00 PM84 °FBroken clouds.9 mph70%29.80 "HgN/A
1:30 PM84 °FBroken clouds.9 mph70%29.80 "HgN/A
1:00 PM88 °FPartly sunny.7 mph62%29.80 "HgN/A
12:30 PM88 °FBroken clouds.3 mph62%29.83 "HgN/A
12:00 PM88 °FPartly sunny.5 mph62%29.83 "HgN/A
11:30 AM86 °FPartly sunny.3 mph62%29.86 "HgN/A
11:00 AM86 °FBroken clouds.3 mph66%29.86 "HgN/A
10:30 AM84 °FBroken clouds.7 mph70%29.89 "HgN/A
10:00 AM82 °FBroken clouds.3 mph74%29.89 "HgN/A
9:30 AM81 °FBroken clouds.2 mph79%29.89 "HgN/A
9:00 AM79 °FBroken clouds.1 mph84%29.89 "HgN/A
8:30 AM77 °FBroken clouds.6 mph89%29.89 "HgN/A
8:00 AM77 °FBroken clouds.6 mph83%29.86 "HgN/A
7:30 AM75 °FPartly sunny.5 mph89%29.86 "HgN/A
7:00 AM75 °FPartly sunny.6 mph89%29.83 "HgN/A
6:30 AM75 °FPassing clouds.3 mph89%29.83 "HgN/A
6:00 AM75 °FPartly cloudy.5 mph89%29.83 "HgN/A
5:30 AM75 °FPartly cloudy.3 mph89%29.83 "HgN/A
4:30 AM75 °FPassing clouds.5 mph89%29.80 "HgN/A
4:00 AM75 °FPassing clouds.5 mph89%29.80 "HgN/A
3:30 AM75 °FPartly cloudy.5 mph89%29.80 "HgN/A
3:00 AM75 °FPartly cloudy.5 mph89%29.80 "HgN/A
2:30 AM75 °FPartly cloudy.5 mph89%29.83 "HgN/A
2:00 AM75 °FPartly cloudy.3 mph89%29.83 "HgN/A
1:30 AM75 °FPartly cloudy.3 mph89%29.86 "HgN/A
1:00 AM75 °FPassing clouds.3 mph89%29.86 "HgN/A
12:30 AM75 °FPassing clouds.1 mph94%29.86 "HgN/A
12:00 AM75 °FPassing clouds.3 mph89%29.86 "HgN/A
11:30 PM
Jan 27
77 °FPassing clouds.3 mph83%29.86 "HgN/A
11:00 PM77 °FPassing clouds.3 mph83%29.89 "HgN/A
10:30 PM77 °FPassing clouds.5 mph89%29.89 "HgN/A
10:00 PM77 °FPartly cloudy.3 mph89%29.86 "HgN/A
9:30 PM77 °FPartly cloudy.3 mph83%29.86 "HgN/A
9:00 PM79 °FPartly cloudy.3 mph79%29.86 "HgN/A
8:30 PM79 °FPartly cloudy.5 mph79%29.86 "HgN/A
8:00 PM81 °FPartly cloudy.5 mph74%29.83 "HgN/A
7:30 PM81 °FPassing clouds.6 mph70%29.83 "HgN/A
7:00 PM81 °FPartly cloudy.5 mph70%29.83 "HgN/A
6:30 PM82 °FBroken clouds.8 mph62%29.83 "HgN/A
6:00 PM82 °FPartly sunny.6 mph66%29.80 "HgN/A
5:30 PM84 °FPartly sunny.6 mph58%29.80 "HgN/A
5:00 PM84 °FBroken clouds.7 mph58%29.80 "HgN/A
Weather by CustomWeather, © 2014

See weather overviewHow to use our weather pages